Location: Isle of Man Observatory
(54.1776°N, 4.6264°W)
Time: 07:01:06
(UTC+02:00)

Envisat - Pass Details

Date: 15 May 2026
Orbit: 761 x 763 km, 98.4° (Epoch: 11 June)

Event Time Altitude Azimuth Distance (km) Brightness Sun altitude
Rises 04:11:12 0° 21° (NNE) 3,238 8.2 -12.8°
Reaches altitude 10° 04:13:48 10° 32° (NNE) 2,307 7.0 -12.7°
Maximum altitude 04:18:15 30° 94° (E) 1,342 4.5 -12.3°
Drops below altitude 10° 04:22:41 10° 155° (SSE) 2,291 5.1 -12.0°
Enters shadow 04:24:15 - 163° (SSE) 2,847 5.6 -11.9°
